When you browse on this site, cookies collect data to enhance your experience and personalize the content and advertising you see.
Visit our Privacy Policy to learn more. By continuing to use the site, you agree to this use of cookies and data.

Hourly Weather Can Tho

Today, 3 August, Monday

Time Temperature Precipitation Wind Pressure Humidity
00:00 +27°C° 0.5 mm 3 mps 755 mmHg 92%
01:00 +27°C° 0 mm 3 mps 754 mmHg 94%
02:00 +27°C° 0.2 mm 3 mps 754 mmHg 93%
03:00 +27°C° 0.2 mm 3 mps 754 mmHg 93%
04:00 +27°C° 0.2 mm 3 mps 753 mmHg 92%
05:00 +27°C° 0.2 mm 3 mps 754 mmHg 91%
06:00 +27°C° 0.2 mm 3 mps 754 mmHg 90%
07:00 +28°C° 0 mm 3 mps 754 mmHg 90%
08:00 +29°C° 0 mm 4 mps 754 mmHg 85%
09:00 +30°C° 0 mm 4 mps 754 mmHg 79%
10:00 +33°C° 0 mm 5 mps 754 mmHg 74%
11:00 +33°C° 0.2 mm 5 mps 754 mmHg 75%
12:00 +32°C° 0.2 mm 5 mps 754 mmHg 75%
13:00 +32°C° 0 mm 5 mps 754 mmHg 78%
14:00 +30°C° 1.2 mm 5 mps 753 mmHg 81%
15:00 +30°C° 1.2 mm 4 mps 753 mmHg 84%
16:00 +29°C° 1.2 mm 3 mps 753 mmHg 86%
17:00 +29°C° 0 mm 3 mps 753 mmHg 88%
18:00 +28°C° 0 mm 3 mps 753 mmHg 89%
19:00 +28°C° 0 mm 2 mps 753 mmHg 91%
20:00 +28°C° 0 mm 2 mps 754 mmHg 91%
21:00 +27°C° 0 mm 2 mps 754 mmHg 91%
22:00 +27°C° 0 mm 2 mps 755 mmHg 91%
23:00 +27°C° 0 mm 2 mps 755 mmHg 91%

Tomorrow, 4 August, Tuesday

Time Temperature Precipitation Wind Pressure Humidity
00:00 +27°C° 0 mm 2 mps 754 mmHg 91%
01:00 +27°C° 0 mm 1 mps 754 mmHg 91%
02:00 +27°C° 0.8 mm 2 mps 754 mmHg 92%
03:00 +27°C° 0.8 mm 2 mps 754 mmHg 93%
04:00 +27°C° 0.8 mm 2 mps 753 mmHg 94%
05:00 +27°C° 0.7 mm 2 mps 754 mmHg 93%
06:00 +27°C° 0.7 mm 3 mps 754 mmHg 92%
07:00 +27°C° 0.7 mm 3 mps 755 mmHg 91%
08:00 +27°C° 1.4 mm 3 mps 755 mmHg 91%
09:00 +27°C° 1.4 mm 4 mps 755 mmHg 91%
10:00 +27°C° 1.4 mm 4 mps 755 mmHg 91%
11:00 +27°C° 0.1 mm 4 mps 755 mmHg 90%
12:00 +27°C° 0.1 mm 3 mps 755 mmHg 90%
13:00 +27°C° 0.1 mm 2 mps 754 mmHg 90%
14:00 +27°C° 0.1 mm 2 mps 754 mmHg 91%
15:00 +27°C° 0.1 mm 2 mps 753 mmHg 91%
16:00 +27°C° 0.1 mm 2 mps 753 mmHg 92%
17:00 +27°C° 0 mm 2 mps 753 mmHg 92%
18:00 +27°C° 0 mm 2 mps 753 mmHg 92%
19:00 +27°C° 0 mm 1 mps 754 mmHg 92%
20:00 +27°C° 0 mm 2 mps 754 mmHg 91%
21:00 +27°C° 0 mm 2 mps 755 mmHg 91%
22:00 +27°C° 0 mm 2 mps 755 mmHg 90%
23:00 +27°C° 0.1 mm 2 mps 755 mmHg 91%

Day after tomorrow, 5 August, Wednesday

Time Temperature Precipitation Wind Pressure Humidity
00:00 +27°C° 0.1 mm 2 mps 755 mmHg 91%
01:00 +27°C° 0.1 mm 2 mps 755 mmHg 91%
02:00 +27°C° 0 mm 2 mps 754 mmHg 91%
03:00 +27°C° 0 mm 2 mps 754 mmHg 90%
04:00 +27°C° 0 mm 1 mps 754 mmHg 90%
05:00 +27°C° 0.1 mm 2 mps 754 mmHg 90%
06:00 +27°C° 0.1 mm 2 mps 755 mmHg 90%
07:00 +27°C° 0.1 mm 2 mps 755 mmHg 90%
08:00 +28°C° 0.7 mm 3 mps 755 mmHg 88%
09:00 +29°C° 0.7 mm 4 mps 755 mmHg 85%
10:00 +29°C° 0.7 mm 5 mps 756 mmHg 82%
11:00 +30°C° 1.4 mm 5 mps 755 mmHg 80%
12:00 +30°C° 1.4 mm 6 mps 755 mmHg 79%
13:00 +32°C° 1.4 mm 6 mps 755 mmHg 77%
14:00 +30°C° 0.6 mm 6 mps 754 mmHg 78%
15:00 +30°C° 0.6 mm 6 mps 754 mmHg 80%
16:00 +29°C° 0.6 mm 5 mps 753 mmHg 81%
17:00 +28°C° 0.7 mm 5 mps 754 mmHg 84%
18:00 +28°C° 0.7 mm 5 mps 754 mmHg 87%
19:00 +27°C° 0.7 mm 5 mps 755 mmHg 90%
20:00 +26°C° 0.7 mm 4 mps 755 mmHg 91%
21:00 +26°C° 0.7 mm 4 mps 756 mmHg 91%
22:00 +26°C° 0.7 mm 3 mps 756 mmHg 92%
23:00 +26°C° 1.2 mm 4 mps 756 mmHg 92%

6 August, Thursday

Time Temperature Precipitation Wind Pressure Humidity
00:00 +25°C° 1.2 mm 4 mps 756 mmHg 93%
01:00 +25°C° 1.2 mm 4 mps 756 mmHg 93%
02:00 +25°C° 0.8 mm 4 mps 755 mmHg 93%
03:00 +25°C° 0.8 mm 3 mps 755 mmHg 94%
04:00 +25°C° 0.8 mm 2 mps 755 mmHg 94%
05:00 +25°C° 0.7 mm 3 mps 755 mmHg 94%
06:00 +25°C° 0.7 mm 3 mps 755 mmHg 95%
07:00 +26°C° 0.7 mm 3 mps 756 mmHg 95%
08:00 +26°C° 1.2 mm 3 mps 756 mmHg 94%
09:00 +26°C° 1.2 mm 3 mps 756 mmHg 93%
10:00 +26°C° 1.2 mm 4 mps 757 mmHg 92%
11:00 +26°C° 0.9 mm 4 mps 756 mmHg 92%
12:00 +26°C° 0.9 mm 4 mps 756 mmHg 92%
13:00 +26°C° 0.9 mm 4 mps 755 mmHg 92%
14:00 +26°C° 0.6 mm 4 mps 755 mmHg 91%
15:00 +26°C° 0.6 mm 4 mps 755 mmHg 91%
16:00 +26°C° 0.6 mm 3 mps 754 mmHg 90%
17:00 +26°C° 0.1 mm 3 mps 755 mmHg 91%
18:00 +26°C° 0.1 mm 3 mps 755 mmHg 92%
19:00 +25°C° 0.1 mm 2 mps 755 mmHg 93%
20:00 +25°C° 0 mm 2 mps 756 mmHg 93%
21:00 +25°C° 0 mm 2 mps 756 mmHg 93%
22:00 +25°C° 0 mm 1 mps 757 mmHg 93%
23:00 +25°C° 0.1 mm 1 mps 757 mmHg 94%

7 August, Friday

Time Temperature Precipitation Wind Pressure Humidity
00:00 +25°C° 0.1 mm 2 mps 756 mmHg 94%
01:00 +25°C° 0.1 mm 2 mps 756 mmHg 95%
02:00 +25°C° 0.1 mm 2 mps 756 mmHg 95%
03:00 +25°C° 0.1 mm 2 mps 755 mmHg 94%
04:00 +25°C° 0.1 mm 3 mps 755 mmHg 94%
05:00 +25°C° 0.1 mm 3 mps 755 mmHg 94%
06:00 +25°C° 0.1 mm 3 mps 755 mmHg 93%
07:00 +26°C° 0.1 mm 2 mps 756 mmHg 93%
08:00 +27°C° 0 mm 2 mps 756 mmHg 89%
09:00 +27°C° 0 mm 2 mps 756 mmHg 85%
10:00 +28°C° 0 mm 2 mps 756 mmHg 81%
11:00 +29°C° 0 mm 3 mps 756 mmHg 78%
12:00 +30°C° 0 mm 3 mps 755 mmHg 75%
13:00 +31°C° 0 mm 3 mps 755 mmHg 72%
14:00 +30°C° 0.1 mm 3 mps 755 mmHg 73%
15:00 +30°C° 0.1 mm 3 mps 754 mmHg 74%
16:00 +30°C° 0.1 mm 3 mps 754 mmHg 75%
17:00 +29°C° 0.3 mm 3 mps 754 mmHg 79%
18:00 +28°C° 0.3 mm 2 mps 755 mmHg 84%
19:00 +27°C° 0.3 mm 2 mps 755 mmHg 88%
20:00 +27°C° 0.1 mm 1 mps 755 mmHg 88%
21:00 +27°C° 0.1 mm 1 mps 756 mmHg 89%
22:00 +26°C° 0.1 mm 1 mps 757 mmHg 89%
23:00 +26°C° 0 mm 1 mps 756 mmHg 89%

8 August, Saturday

Time Temperature Precipitation Wind Pressure Humidity
00:00 +24°C° 0 mm 0 mps 756 mmHg 88%
01:00 +24°C° 0 mm 0 mps 755 mmHg 87%
02:00 +26°C° 0 mm 1 mps 755 mmHg 88%
03:00 +26°C° 0 mm 1 mps 755 mmHg 88%
04:00 +26°C° 0 mm 1 mps 754 mmHg 88%
05:00 +26°C° 0 mm 1 mps 755 mmHg 89%
06:00 +26°C° 0 mm 1 mps 755 mmHg 89%
07:00 +27°C° 0 mm 1 mps 755 mmHg 89%
08:00 +28°C° 0 mm 2 mps 755 mmHg 83%
09:00 +30°C° 0 mm 2 mps 756 mmHg 77%
10:00 +32°C° 0 mm 2 mps 756 mmHg 71%
11:00 +33°C° 1.3 mm 3 mps 755 mmHg 72%
12:00 +31°C° 1.3 mm 3 mps 755 mmHg 73%
13:00 +31°C° 1.3 mm 3 mps 754 mmHg 74%
14:00 +33°C° 1 mm 3 mps 753 mmHg 74%
15:00 +33°C° 1 mm 3 mps 753 mmHg 73%
16:00 +33°C° 1 mm 4 mps 752 mmHg 73%
17:00 +31°C° 0.2 mm 3 mps 753 mmHg 78%
18:00 +29°C° 0.2 mm 3 mps 753 mmHg 83%
19:00 +28°C° 0.2 mm 2 mps 754 mmHg 87%
20:00 +28°C° 0.1 mm 2 mps 754 mmHg 88%
21:00 +28°C° 0.1 mm 2 mps 755 mmHg 89%
22:00 +27°C° 0.1 mm 2 mps 755 mmHg 90%
23:00 +27°C° 0 mm 2 mps 755 mmHg 90%
Show more